QPF
0.00 0.01 0.00 0.01 0.00 0.00 0.01 0.01 0.02 0.02 0.02 0.03 0.03 0.02 0.02 0.02 0.03 0.01 0.01 0.01 0.01 0.01 0.01 0.02 0.02 0.02 0.01 0.02 0.02 0.02 0.01 0.01 0.01 0.00 0.00 0.01 0.01 0.01 0.01 0.01 0.01 0.01 0.01
0.00 0.01 0.01 0.01 0.01 0.00 0.01 0.01 0.02 0.02 0.01 0.02 0.04 0.03 0.02 0.02 0.02 0.02 0.01 0.01 0.01 0.02 0.02 0.02 0.03 0.02 0.02 0.01 0.02 0.02 0.01 0.01 0.00 0.00 0.00 0.00 0.01 0.01 0.01 0.01 0.01 0.01 0.01
0.00 0.01 0.01 0.01 0.01 0.01 0.01 0.01 0.01 0.02 0.01 0.02 0.02 0.03 0.03 0.02 0.02 0.02 0.01 0.02 0.02 0.03 0.03 0.03 0.05 0.04 0.03 0.02 0.01 0.01 0.01 0.00 0.00 0.00 0.01 0.01 0.01 0.01 0.01 0.01 0.01 0.01 0.02
0.00 0.01 0.01 0.02 0.02 0.02 0.01 0.01 0.01 0.01 0.01 0.01 0.02 0.02 0.03 0.03 0.03 0.03 0.02 0.02 0.02 0.03 0.05 0.05 0.06 0.05 0.03 0.02 0.01 0.01 0.01 0.01 0.01 0.01 0.01 0.01 0.01 0.01 0.01 0.01 0.02 0.02 0.03
0.00 0.01 0.02 0.02 0.03 0.04 0.03 0.02 0.02 0.02 0.02 0.02 0.02 0.02 0.02 0.02 0.03 0.04 0.03 0.02 0.03 0.03 0.04 0.04 0.03 0.03 0.02 0.02 0.01 0.01 0.01 0.01 0.01 0.01 0.01 0.01 0.02 0.02 0.02 0.01 0.02 0.02 0.02
0.00 0.01 0.02 0.03 0.04 0.04 0.04 0.03 0.03 0.03 0.03 0.02 0.02 0.02 0.02 0.03 0.04 0.04 0.03 0.02 0.02 0.05 0.06 0.05 0.04 0.03 0.02 0.01 0.01 0.01 0.01 0.01 0.01 0.01 0.02 0.02 0.02 0.03 0.02 0.01 0.01 0.01 0.01
0.01 0.01 0.02 0.03 0.05 0.05 0.05 0.04 0.03 0.03 0.02 0.02 0.02 0.02 0.03 0.04 0.04 0.04 0.03 0.02 0.02 0.06 0.09 0.08 0.07 0.05 0.03 0.02 0.01 0.01 0.01 0.01 0.01 0.01 0.02 0.03 0.02 0.03 0.03 0.02 0.01 0.01 0.01
0.01 0.01 0.02 0.03 0.04 0.05 0.06 0.05 0.05 0.04 0.03 0.03 0.02 0.03 0.04 0.04 0.04 0.03 0.02 0.02 0.02 0.04 0.05 0.05 0.05 0.05 0.03 0.03 0.03 0.02 0.01 0.01 0.01 0.02 0.03 0.04 0.03 0.03 0.03 0.04 0.03 0.02 0.02
0.01 0.02 0.03 0.03 0.03 0.04 0.05 0.06 0.06 0.06 0.06 0.06 0.04 0.03 0.03 0.03 0.03 0.03 0.02 0.02 0.02 0.03 0.04 0.04 0.03 0.03 0.04 0.03 0.02 0.02 0.01 0.01 0.01 0.01 0.03 0.04 0.03 0.04 0.04 0.04 0.03 0.03 0.02
0.01 0.02 0.03 0.03 0.04 0.04 0.03 0.03 0.04 0.05 0.06 0.07 0.07 0.04 0.03 0.02 0.02 0.02 0.02 0.02 0.02 0.02 0.03 0.03 0.03 0.04 0.04 0.03 0.02 0.01 0.01 0.01 0.01 0.01 0.02 0.03 0.03 0.04 0.03 0.03 0.03 0.03 0.02
0.01 0.02 0.03 0.03 0.04 0.06 0.04 0.03 0.04 0.05 0.06 0.06 0.06 0.05 0.04 0.05 0.04 0.02 0.02 0.01 0.01 0.02 0.02 0.02 0.02 0.03 0.03 0.03 0.03 0.02 0.01 0.01 0.02 0.02 0.02 0.02 0.02 0.03 0.03 0.02 0.02 0.03 0.04
0.01 0.02 0.03 0.03 0.04 0.07 0.06 0.03 0.04 0.05 0.06 0.05 0.04 0.04 0.04 0.04 0.06 0.04 0.03 0.02 0.02 0.02 0.02 0.03 0.02 0.02 0.02 0.02 0.02 0.02 0.01 0.02 0.02 0.02 0.02 0.02 0.02 0.03 0.04 0.04 0.03 0.03 0.04
0.01 0.01 0.02 0.03 0.03 0.08 0.08 0.04 0.03 0.04 0.06 0.06 0.04 0.05 0.05 0.07 0.07 0.06 0.04 0.03 0.03 0.02 0.02 0.02 0.02 0.02 0.02 0.02 0.02 0.02 0.02 0.02 0.02 0.02 0.01 0.01 0.02 0.03 0.04 0.05 0.05 0.04 0.03
0.01 0.01 0.02 0.03 0.04 0.07 0.10 0.05 0.03 0.03 0.04 0.05 0.04 0.04 0.07 0.07 0.06 0.07 0.05 0.03 0.02 0.02 0.02 0.01 0.01 0.01 0.01 0.01 0.01 0.01 0.02 0.02 0.02 0.02 0.01 0.01 0.01 0.02 0.04 0.04 0.05 0.06 0.04
0.01 0.01 0.01 0.02 0.04 0.06 0.11 0.07 0.04 0.04 0.04 0.04 0.06 0.06 0.06 0.06 0.06 0.06 0.06 0.04 0.03 0.02 0.02 0.01 0.00 0.00 0.01 0.01 0.01 0.02 0.02 0.02 0.01 0.01 0.01 0.01 0.01 0.02 0.03 0.03 0.04 0.05 0.05
0.01 0.01 0.01 0.02 0.04 0.06 0.08 0.08 0.05 0.04 0.04 0.05 0.05 0.06 0.08 0.08 0.08 0.07 0.07 0.06 0.04 0.03 0.02 0.01 0.01 0.01 0.01 0.01 0.01 0.02 0.02 0.03 0.02 0.01 0.01 0.01 0.01 0.02 0.03 0.03 0.03 0.04 0.05
0.01 0.01 0.01 0.02 0.03 0.04 0.06 0.07 0.05 0.05 0.06 0.05 0.05 0.06 0.07 0.08 0.07 0.09 0.09 0.08 0.06 0.05 0.04 0.03 0.01 0.01 0.01 0.01 0.01 0.00 0.01 0.02 0.02 0.02 0.01 0.01 0.01 0.01 0.01 0.03 0.03 0.03 0.04
0.02 0.02 0.01 0.02 0.02 0.03 0.05 0.06 0.04 0.04 0.06 0.07 0.06 0.07 0.07 0.07 0.06 0.06 0.09 0.09 0.08 0.07 0.06 0.03 0.02 0.01 0.00 0.00 0.00 0.00 0.00 0.00 0.01 0.01 0.01 0.01 0.01 0.01 0.01 0.01 0.02 0.03 0.04
0.01 0.01 0.01 0.01 0.02 0.02 0.04 0.06 0.04 0.03 0.03 0.05 0.06 0.06 0.07 0.09 0.08 0.05 0.06 0.07 0.07 0.07 0.07 0.04 0.02 0.01 0.01 0.00 0.00 0.00 0.00 0.00 0.00 0.00 0.01 0.00 0.00 0.00 0.01 0.01 0.01 0.02 0.03
0.01 0.01 0.01 0.01 0.02 0.02 0.03 0.05 0.05 0.03 0.02 0.03 0.04 0.04 0.05 0.07 0.09 0.08 0.08 0.07 0.05 0.04 0.04 0.04 0.03 0.02 0.01 0.01 0.00 0.00 0.00 0.00 0.00 0.00 0.00 0.00 0.00 0.00 0.00 0.00 0.01 0.01 0.01
0.01 0.01 0.01 0.01 0.01 0.02 0.03 0.03 0.04 0.03 0.02 0.01 0.02 0.03 0.04 0.04 0.07 0.08 0.09 0.08 0.06 0.04 0.03 0.02 0.02 0.02 0.02 0.01 0.01 0.00 0.00 0.00 0.00 0.00 0.00 0.00 0.00 0.01 0.01 0.01 0.01 0.01 0.01
0.02 0.01 0.01 0.01 0.01 0.02 0.02 0.03 0.02 0.02 0.02 0.02 0.02 0.03 0.03 0.03 0.04 0.05 0.06 0.06 0.05 0.04 0.03 0.03 0.03 0.02 0.02 0.01 0.01 0.01 0.01 0.01 0.01 0.01 0.01 0.01 0.01 0.01 0.01 0.01 0.01 0.01 0.01
0.03 0.01 0.00 0.01 0.01 0.01 0.01 0.02 0.02 0.02 0.02 0.02 0.01 0.02 0.02 0.02 0.02 0.03 0.04 0.04 0.03 0.03 0.03 0.03 0.03 0.02 0.02 0.02 0.02 0.02 0.03 0.02 0.01 0.01 0.01 0.01 0.01 0.01 0.01 0.01 0.01 0.01 0.02
0.02 0.01 0.01 0.01 0.01 0.01 0.01 0.01 0.01 0.02 0.01 0.01 0.01 0.01 0.02 0.02 0.02 0.02 0.02 0.04 0.03 0.02 0.02 0.02 0.02 0.03 0.03 0.03 0.03 0.02 0.03 0.03 0.02 0.02 0.02 0.02 0.02 0.02 0.02 0.02 0.01 0.01 0.01
0.02 0.01 0.01 0.01 0.01 0.01 0.01 0.01 0.01 0.02 0.02 0.01 0.01 0.01 0.01 0.02 0.02 0.02 0.02 0.03 0.03 0.02 0.02 0.02 0.02 0.03 0.04 0.04 0.04 0.04 0.04 0.04 0.03 0.02 0.02 0.03 0.03 0.03 0.02 0.02 0.02 0.01 0.01
0.02 0.01 0.01 0.00 0.01 0.01 0.01 0.02 0.03 0.03 0.03 0.02 0.02 0.02 0.02 0.02 0.02 0.03 0.02 0.03 0.03 0.02 0.02 0.02 0.02 0.02 0.03 0.04 0.05 0.05 0.05 0.05 0.04 0.04 0.03 0.03 0.03 0.04 0.03 0.02 0.01 0.01 0.01
MSLP
1012.03 1011.74 1011.41 1011.10 1010.85 1010.72 1010.72 1010.85 1011.08 1011.37 1011.68 1011.97 1012.23 1012.45 1012.64 1012.80 1012.96 1013.12 1013.29 1013.47 1013.65 1013.84 1014.04 1014.26 1014.49 1014.74 1015.00 1015.26 1015.51 1015.73 1015.93 1016.10 1016.24 1016.37 1016.49 1016.62 1016.75 1016.88 1017.00 1017.11 1017.20 1017.27 1017.33
1012.37 1012.03 1011.65 1011.30 1011.01 1010.84 1010.80 1010.89 1011.08 1011.35 1011.65 1011.96 1012.25 1012.52 1012.75 1012.96 1013.16 1013.34 1013.53 1013.71 1013.90 1014.10 1014.31 1014.55 1014.80 1015.07 1015.34 1015.61 1015.85 1016.06 1016.24 1016.38 1016.51 1016.62 1016.74 1016.87 1017.01 1017.15 1017.28 1017.40 1017.50 1017.57 1017.64
1012.52 1012.16 1011.78 1011.42 1011.13 1010.93 1010.86 1010.91 1011.07 1011.31 1011.59 1011.91 1012.22 1012.52 1012.79 1013.04 1013.26 1013.47 1013.66 1013.85 1014.04 1014.25 1014.48 1014.74 1015.01 1015.30 1015.59 1015.85 1016.09 1016.28 1016.44 1016.57 1016.68 1016.80 1016.93 1017.07 1017.23 1017.39 1017.55 1017.68 1017.80 1017.89 1017.97
1012.50 1012.17 1011.82 1011.49 1011.21 1011.02 1010.93 1010.94 1011.06 1011.26 1011.52 1011.82 1012.14 1012.46 1012.76 1013.03 1013.28 1013.50 1013.70 1013.90 1014.10 1014.33 1014.57 1014.85 1015.15 1015.45 1015.75 1016.02 1016.24 1016.43 1016.57 1016.69 1016.81 1016.94 1017.08 1017.25 1017.44 1017.63 1017.81 1017.97 1018.10 1018.21 1018.30
1012.36 1012.10 1011.83 1011.56 1011.32 1011.14 1011.03 1011.01 1011.08 1011.23 1011.46 1011.73 1012.04 1012.36 1012.67 1012.97 1013.24 1013.47 1013.69 1013.91 1014.13 1014.37 1014.64 1014.94 1015.26 1015.58 1015.88 1016.15 1016.37 1016.54 1016.69 1016.81 1016.93 1017.08 1017.25 1017.45 1017.66 1017.88 1018.08 1018.26 1018.41 1018.53 1018.63
1012.17 1012.02 1011.85 1011.65 1011.47 1011.31 1011.19 1011.13 1011.15 1011.24 1011.41 1011.65 1011.94 1012.26 1012.58 1012.90 1013.19 1013.45 1013.69 1013.93 1014.17 1014.44 1014.73 1015.05 1015.39 1015.72 1016.03 1016.30 1016.52 1016.69 1016.83 1016.96 1017.09 1017.26 1017.45 1017.67 1017.91 1018.14 1018.36 1018.56 1018.72 1018.85 1018.96
1012.04 1012.00 1011.92 1011.82 1011.68 1011.53 1011.40 1011.29 1011.25 1011.28 1011.39 1011.59 1011.86 1012.18 1012.52 1012.86 1013.18 1013.48 1013.75 1014.02 1014.29 1014.58 1014.90 1015.24 1015.59 1015.93 1016.24 1016.50 1016.71 1016.88 1017.02 1017.15 1017.30 1017.48 1017.70 1017.94 1018.19 1018.43 1018.66 1018.85 1019.01 1019.15 1019.26
1012.01 1012.07 1012.08 1012.03 1011.93 1011.78 1011.61 1011.46 1011.35 1011.32 1011.38 1011.55 1011.81 1012.14 1012.51 1012.88 1013.24 1013.58 1013.89 1014.19 1014.50 1014.81 1015.15 1015.50 1015.86 1016.20 1016.50 1016.76 1016.96 1017.12 1017.26 1017.40 1017.56 1017.75 1017.97 1018.22 1018.48 1018.73 1018.95 1019.14 1019.30 1019.43 1019.54
1012.09 1012.21 1012.27 1012.25 1012.15 1011.98 1011.77 1011.56 1011.40 1011.32 1011.35 1011.50 1011.77 1012.12 1012.53 1012.95 1013.37 1013.76 1014.11 1014.45 1014.77 1015.11 1015.45 1015.81 1016.16 1016.49 1016.78 1017.03 1017.22 1017.37 1017.51 1017.65 1017.82 1018.02 1018.25 1018.51 1018.77 1019.01 1019.23 1019.41 1019.55 1019.68 1019.79
1012.23 1012.36 1012.43 1012.40 1012.27 1012.06 1011.80 1011.54 1011.33 1011.21 1011.23 1011.40 1011.69 1012.09 1012.56 1013.05 1013.52 1013.96 1014.36 1014.72 1015.07 1015.41 1015.75 1016.10 1016.44 1016.75 1017.03 1017.26 1017.44 1017.60 1017.74 1017.88 1018.06 1018.27 1018.51 1018.77 1019.03 1019.27 1019.48 1019.65 1019.79 1019.90 1020.01
1012.35 1012.45 1012.47 1012.40 1012.22 1011.95 1011.64 1011.34 1011.10 1010.97 1011.01 1011.21 1011.56 1012.02 1012.56 1013.12 1013.65 1014.14 1014.58 1014.97 1015.32 1015.66 1015.99 1016.32 1016.64 1016.94 1017.20 1017.42 1017.60 1017.75 1017.90 1018.06 1018.25 1018.47 1018.73 1018.99 1019.26 1019.50 1019.71 1019.87 1020.01 1020.12 1020.23
1012.36 1012.39 1012.34 1012.20 1011.95 1011.63 1011.27 1010.94 1010.70 1010.60 1010.67 1010.93 1011.35 1011.89 1012.51 1013.13 1013.73 1014.26 1014.72 1015.13 1015.48 1015.81 1016.13 1016.44 1016.74 1017.02 1017.27 1017.49 1017.67 1017.84 1018.01 1018.19 1018.39 1018.63 1018.90 1019.18 1019.46 1019.70 1019.92 1020.09 1020.23 1020.34 1020.45
1012.23 1012.16 1012.03 1011.80 1011.48 1011.12 1010.74 1010.41 1010.19 1010.13 1010.27 1010.60 1011.10 1011.71 1012.40 1013.08 1013.72 1014.29 1014.77 1015.18 1015.53 1015.85 1016.15 1016.44 1016.73 1017.00 1017.25 1017.48 1017.69 1017.88 1018.07 1018.28 1018.51 1018.77 1019.06 1019.35 1019.64 1019.90 1020.12 1020.30 1020.45 1020.57 1020.69
1011.95 1011.79 1011.56 1011.26 1010.90 1010.50 1010.13 1009.82 1009.65 1009.66 1009.87 1010.27 1010.84 1011.53 1012.26 1012.99 1013.66 1014.25 1014.74 1015.14 1015.49 1015.79 1016.08 1016.37 1016.65 1016.93 1017.20 1017.45 1017.69 1017.91 1018.14 1018.38 1018.64 1018.92 1019.22 1019.53 1019.82 1020.09 1020.33 1020.52 1020.68 1020.81 1020.93
1011.59 1011.34 1011.04 1010.69 1010.30 1009.92 1009.57 1009.32 1009.22 1009.29 1009.57 1010.04 1010.67 1011.39 1012.15 1012.89 1013.57 1014.16 1014.65 1015.05 1015.39 1015.69 1015.98 1016.27 1016.57 1016.86 1017.16 1017.45 1017.72 1017.99 1018.25 1018.52 1018.80 1019.10 1019.41 1019.72 1020.02 1020.29 1020.53 1020.73 1020.90 1021.04 1021.16
1011.25 1010.94 1010.60 1010.23 1009.85 1009.50 1009.21 1009.03 1009.00 1009.15 1009.49 1010.00 1010.64 1011.37 1012.12 1012.85 1013.50 1014.07 1014.55 1014.94 1015.28 1015.59 1015.89 1016.20 1016.52 1016.85 1017.18 1017.51 1017.83 1018.13 1018.43 1018.72 1019.02 1019.32 1019.62 1019.92 1020.21 1020.48 1020.71 1020.91 1021.08 1021.23 1021.36
1011.03 1010.70 1010.34 1009.99 1009.65 1009.36 1009.15 1009.05 1009.10 1009.31 1009.68 1010.20 1010.83 1011.52 1012.22 1012.89 1013.50 1014.03 1014.48 1014.86 1015.20 1015.53 1015.85 1016.19 1016.54 1016.91 1017.28 1017.65 1018.00 1018.34 1018.66 1018.96 1019.26 1019.56 1019.84 1020.12 1020.38 1020.62 1020.84 1021.03 1021.20 1021.34 1021.47
1011.03 1010.69 1010.35 1010.03 1009.75 1009.54 1009.41 1009.39 1009.51 1009.76 1010.15 1010.64 1011.22 1011.84 1012.46 1013.05 1013.58 1014.06 1014.47 1014.84 1015.19 1015.53 1015.88 1016.25 1016.64 1017.04 1017.45 1017.84 1018.22 1018.58 1018.91 1019.22 1019.50 1019.77 1020.03 1020.27 1020.49 1020.70 1020.89 1021.06 1021.22 1021.37 1021.50
1011.25 1010.92 1010.62 1010.35 1010.14 1010.00 1009.96 1010.03 1010.20 1010.47 1010.85 1011.29 1011.79 1012.30 1012.81 1013.30 1013.74 1014.15 1014.52 1014.87 1015.23 1015.58 1015.96 1016.36 1016.78 1017.20 1017.63 1018.04 1018.43 1018.80 1019.13 1019.42 1019.69 1019.93 1020.15 1020.35 1020.53 1020.70 1020.86 1021.01 1021.15 1021.29 1021.43
1011.66 1011.36 1011.09 1010.88 1010.73 1010.68 1010.72 1010.85 1011.06 1011.35 1011.69 1012.07 1012.47 1012.87 1013.25 1013.62 1013.96 1014.29 1014.62 1014.96 1015.31 1015.68 1016.07 1016.49 1016.92 1017.36 1017.79 1018.20 1018.59 1018.94 1019.26 1019.54 1019.79 1020.00 1020.18 1020.34 1020.48 1020.62 1020.75 1020.87 1021.01 1021.15 1021.29
1012.17 1011.89 1011.66 1011.50 1011.42 1011.43 1011.54 1011.73 1011.98 1012.27 1012.58 1012.88 1013.18 1013.45 1013.71 1013.96 1014.21 1014.47 1014.76 1015.07 1015.41 1015.79 1016.19 1016.61 1017.04 1017.47 1017.88 1018.28 1018.65 1018.98 1019.28 1019.55 1019.78 1019.96 1020.12 1020.25 1020.37 1020.47 1020.58 1020.69 1020.82 1020.96 1021.10
1012.67 1012.42 1012.22 1012.09 1012.07 1012.15 1012.31 1012.55 1012.83 1013.12 1013.39 1013.63 1013.83 1014.01 1014.16 1014.31 1014.47 1014.67 1014.91 1015.20 1015.54 1015.91 1016.30 1016.71 1017.12 1017.52 1017.90 1018.26 1018.60 1018.91 1019.20 1019.45 1019.66 1019.84 1019.98 1020.10 1020.20 1020.29 1020.39 1020.49 1020.62 1020.76 1020.91
1013.07 1012.84 1012.66 1012.57 1012.59 1012.72 1012.93 1013.21 1013.51 1013.80 1014.05 1014.24 1014.38 1014.47 1014.54 1014.61 1014.71 1014.86 1015.07 1015.34 1015.66 1016.02 1016.40 1016.78 1017.15 1017.51 1017.84 1018.16 1018.47 1018.75 1019.02 1019.26 1019.47 1019.65 1019.80 1019.92 1020.02 1020.11 1020.20 1020.30 1020.43 1020.57 1020.74
1013.31 1013.11 1012.95 1012.89 1012.94 1013.10 1013.36 1013.67 1013.99 1014.29 1014.52 1014.68 1014.78 1014.81 1014.83 1014.85 1014.92 1015.04 1015.23 1015.49 1015.80 1016.13 1016.48 1016.82 1017.14 1017.45 1017.73 1018.00 1018.27 1018.53 1018.78 1019.02 1019.24 1019.43 1019.59 1019.72 1019.83 1019.93 1020.02 1020.13 1020.25 1020.40 1020.57
1013.42 1013.24 1013.11 1013.07 1013.15 1013.33 1013.61 1013.94 1014.28 1014.58 1014.81 1014.96 1015.02 1015.04 1015.03 1015.03 1015.08 1015.19 1015.38 1015.63 1015.92 1016.24 1016.55 1016.85 1017.12 1017.36 1017.59 1017.81 1018.04 1018.27 1018.51 1018.76 1018.99 1019.20 1019.38 1019.53 1019.65 1019.75 1019.85 1019.95 1020.07 1020.22 1020.38
1013.44 1013.29 1013.19 1013.17 1013.26 1013.46 1013.75 1014.08 1014.42 1014.72 1014.94 1015.08 1015.14 1015.14 1015.13 1015.14 1015.19 1015.31 1015.50 1015.75 1016.03 1016.32 1016.60 1016.85 1017.07 1017.25 1017.43 1017.61 1017.80 1018.01 1018.25 1018.49 1018.74 1018.97 1019.17 1019.33 1019.46 1019.56 1019.65 1019.75 1019.85 1019.99 1020.14
Thickness
5734 5734 5731 5730 5730 5729 5728 5728 5727 5726 5726 5725 5725 5724 5724 5723 5723 5722 5722 5722 5722 5722 5723 5722 5722 5722 5722 5722 5721 5721 5721 5721 5721 5721 5721 5721 5721 5720 5720 5720 5719 5719 5718
5735 5731 5728 5727 5726 5726 5725 5725 5724 5723 5723 5722 5722 5722 5721 5721 5720 5720 5719 5720 5720 5720 5720 5720 5719 5719 5719 5718 5718 5718 5718 5718 5718 5718 5718 5718 5718 5718 5717 5717 5717 5716 5716
5732 5728 5724 5723 5722 5722 5721 5721 5720 5720 5719 5719 5719 5719 5718 5718 5717 5717 5716 5716 5717 5717 5717 5717 5716 5716 5715 5715 5715 5715 5715 5715 5715 5716 5716 5716 5715 5715 5715 5714 5714 5713 5713
5727 5724 5721 5719 5718 5717 5717 5717 5716 5716 5716 5716 5716 5715 5715 5715 5714 5714 5713 5713 5713 5713 5713 5713 5713 5713 5712 5712 5711 5712 5712 5712 5713 5714 5714 5714 5713 5712 5712 5711 5711 5711 5710
5722 5719 5717 5715 5713 5713 5712 5712 5712 5712 5712 5712 5711 5711 5711 5711 5711 5710 5710 5709 5709 5709 5710 5709 5709 5709 5709 5708 5708 5708 5709 5710 5711 5711 5711 5711 5710 5709 5709 5708 5708 5707 5707
5716 5714 5711 5710 5709 5708 5708 5707 5707 5707 5707 5707 5707 5707 5707 5707 5706 5706 5706 5705 5705 5705 5705 5705 5705 5705 5705 5705 5705 5706 5706 5707 5708 5708 5708 5707 5707 5706 5706 5705 5705 5704 5703
5709 5707 5705 5704 5703 5703 5703 5703 5702 5703 5702 5703 5703 5703 5703 5702 5702 5702 5701 5701 5701 5701 5701 5701 5701 5701 5701 5701 5702 5702 5703 5704 5704 5705 5704 5704 5703 5703 5702 5702 5701 5701 5700
5702 5701 5699 5698 5698 5698 5698 5698 5698 5698 5698 5698 5698 5698 5698 5698 5698 5697 5697 5696 5696 5696 5696 5697 5697 5697 5697 5698 5698 5699 5699 5700 5701 5701 5700 5700 5699 5699 5699 5698 5698 5697 5696
5696 5694 5693 5692 5692 5692 5692 5693 5692 5693 5693 5693 5693 5693 5693 5693 5693 5693 5692 5692 5692 5692 5692 5692 5692 5693 5693 5693 5694 5694 5695 5696 5696 5696 5696 5695 5695 5695 5694 5694 5693 5693 5692
5689 5688 5687 5687 5687 5687 5687 5687 5687 5687 5688 5688 5688 5688 5688 5688 5688 5688 5687 5687 5687 5687 5687 5688 5688 5688 5689 5689 5689 5690 5691 5691 5692 5692 5691 5690 5690 5690 5689 5689 5689 5688 5687
5681 5682 5682 5682 5682 5682 5682 5682 5682 5682 5682 5682 5682 5683 5683 5683 5683 5683 5682 5682 5682 5683 5683 5683 5684 5684 5684 5684 5685 5686 5686 5687 5687 5686 5686 5685 5685 5685 5684 5684 5684 5683 5683
5673 5675 5676 5677 5677 5677 5677 5677 5677 5677 5677 5678 5678 5678 5678 5678 5678 5678 5678 5678 5678 5678 5678 5679 5679 5679 5679 5680 5680 5681 5682 5682 5682 5681 5680 5680 5679 5679 5679 5679 5678 5678 5677
5668 5669 5670 5671 5671 5671 5672 5672 5673 5673 5673 5673 5673 5674 5674 5674 5674 5673 5673 5673 5673 5673 5673 5674 5674 5674 5675 5675 5675 5676 5677 5677 5677 5676 5675 5674 5674 5674 5673 5673 5673 5672 5672
5664 5664 5665 5665 5665 5665 5666 5666 5667 5668 5668 5669 5669 5669 5669 5669 5669 5669 5668 5668 5668 5668 5668 5669 5669 5670 5670 5671 5671 5672 5672 5672 5671 5670 5669 5668 5668 5668 5668 5668 5667 5666 5666
5659 5659 5659 5659 5659 5659 5659 5661 5662 5662 5663 5664 5664 5664 5664 5664 5664 5664 5663 5663 5663 5664 5664 5664 5664 5665 5665 5666 5666 5666 5667 5666 5665 5664 5663 5662 5662 5662 5662 5662 5661 5661 5659
5655 5654 5654 5653 5653 5653 5654 5655 5655 5656 5657 5658 5658 5658 5658 5659 5659 5659 5658 5658 5658 5658 5659 5658 5659 5659 5659 5659 5660 5660 5660 5660 5659 5658 5656 5656 5656 5656 5656 5656 5655 5655 5654
5650 5650 5648 5648 5648 5648 5649 5649 5650 5650 5651 5652 5652 5652 5652 5652 5653 5653 5653 5652 5652 5652 5652 5652 5652 5652 5652 5652 5652 5652 5653 5653 5652 5651 5650 5649 5649 5649 5649 5649 5649 5648 5647
5645 5644 5644 5644 5643 5643 5643 5643 5643 5644 5644 5645 5645 5645 5646 5646 5646 5646 5646 5646 5646 5645 5645 5645 5645 5644 5643 5643 5643 5643 5644 5644 5644 5643 5643 5642 5641 5641 5641 5641 5641 5640 5640
5640 5639 5638 5638 5637 5637 5637 5636 5636 5637 5637 5637 5638 5639 5639 5639 5639 5639 5639 5640 5639 5638 5638 5637 5637 5636 5634 5634 5633 5634 5634 5635 5635 5635 5635 5634 5634 5633 5633 5633 5633 5632 5632
5635 5634 5633 5632 5631 5631 5630 5629 5629 5629 5630 5630 5631 5632 5632 5633 5633 5633 5632 5632 5632 5631 5630 5629 5628 5627 5626 5625 5625 5624 5624 5625 5626 5626 5626 5626 5626 5625 5624 5624 5624 5623 5623
5627 5627 5627 5625 5625 5624 5623 5622 5621 5621 5622 5623 5624 5625 5625 5626 5626 5626 5625 5624 5624 5623 5622 5621 5620 5618 5616 5616 5614 5612 5612 5615 5616 5616 5616 5617 5616 5616 5615 5615 5615 5615 5614
5621 5620 5620 5619 5619 5619 5618 5617 5617 5616 5616 5616 5617 5618 5618 5618 5618 5619 5618 5617 5617 5615 5614 5614 5613 5609 5608 5608 5606 5603 5600 5601 5603 5606 5606 5607 5607 5607 5606 5606 5606 5606 5605
5614 5613 5614 5613 5612 5612 5611 5610 5609 5608 5608 5608 5609 5610 5611 5611 5611 5612 5611 5611 5610 5609 5607 5606 5606 5603 5600 5600 5600 5598 5595 5593 5592 5594 5596 5597 5596 5596 5597 5597 5597 5597 5597
5608 5608 5607 5606 5606 5605 5604 5603 5603 5602 5602 5603 5603 5603 5603 5604 5604 5604 5604 5603 5602 5602 5600 5599 5598 5596 5594 5592 5591 5592 5593 5591 5586 5583 5585 5587 5587 5587 5587 5588 5588 5588 5588
5602 5601 5600 5599 5599 5598 5597 5597 5596 5596 5596 5596 5596 5595 5595 5596 5596 5596 5596 5595 5594 5594 5593 5592 5590 5589 5588 5586 5584 5583 5583 5582 5582 5578 5575 5576 5576 5577 5578 5578 5578 5579 5579
5593 5592 5592 5592 5591 5591 5590 5589 5589 5589 5588 5587 5588 5587 5587 5587 5588 5588 5588 5587 5586 5585 5585 5584 5582 5581 5580 5578 5577 5576 5575 5574 5573 5572 5569 5566 5566 5567 5568 5569 5569 5569 5569